www.pogodaiklimat.ru

Погода и климат >> Архив погоды >> Россия >> Орловская область >> Орел


АРХИВ ПОГОДЫ в Орле

Время (UTC), дата Ветер
(напр.,м/с)
 
Видим.   Явления Облачность Т
(С)
Тd
(С)
f
(%)
Тe
(С)
Тes
(С)
Комфортность P
(гПа)
Po
(гПа)
Тmin
(С)
Tmax
(С)
R
(мм)
R24
(мм)
S
(см)
15 16.04 З 2 10 км 9/3 600 м
[Cu hum Ci sp]
+19.3 +6.5 43 +20 +21 тепло 1019.6 996.5
18 16.04 Ю 1 10 км 9/6 600 м
[Sc Ci fib]
+13.9 +6.7 62 +14 +14 тепло 1018.5 995.2 +21.0
21 16.04 Ю 1 10 км 8/4 600 м
[Sc Ci fib]
+11.0 +6.8 75 +11 +11 тепло 1018.5 994.9
00 17.04 Ю 2 10 км 8/0
[Ac trans Ci fib]
+9.6 +6.4 80 +8 +8 тепло 1018.3 994.6
03 17.04 Ю 1 10 км 8/0
[Ac trans Ci fib]
+8.1 +5.5 84 +7 +7 тепло 1018.1 994.3 +7.5
06 17.04 Ю 1 10 км 10/0
[Cs]
+13.6 +7.6 67 +14 +19 тепло 1018.0 994.7 +7.5
09 17.04 ЮЗ 2 10 км 10/0
[As trans]
+20.2 +6.5 41 +22 +27 комфорт 1017.6 994.7
12 17.04 ЮЗ 2 10 км 10/0
[As trans]
+20.0 +5.6 39 +21 +25 комфорт 1017.3 994.4
15 17.04 ЮЗ 2 10 км 10/4 600 м
[Sc As op]
+18.2 +0.2 30 +19 +19 тепло 1016.3 993.3
18 17.04 ЮЗ 1 10 км 10/8 600 м
[Sc As op]
+15.2 -0.5 34 +16 +16 тепло 1016.7 993.4 +20.6
21 17.04 ЮЗ 2 10 км 10/4 600 м
[Sc As op]
+13.0 -0.7 39 +13 +13 тепло 1016.0 992.6
00 18.04 Ю 2 10 км слабый ливневой дождь 10/8 600 м
[Cb calv As op]
+11.7 -0.2 44 +11 +11 тепло 1014.6 991.1
03 18.04 ЮЗ 1 10 км слабый ливневой дождь 10/8 300 м
[Cb calv As op]
+10.6 +3.6 62 +11 +11 тепло 1013.0 989.5 +10.3 0.0
06 18.04 З 1 10 км слабый ливневой дождь 10/10 600 м
[Cb calv]
+9.2 +8.6 96 +8 +8 тепло 1012.1 988.5 +8.6 7
09 18.04 10 км {ливн. осадки} н/о +10.5 +8.6 88 +9 +10 по сезону 1012.4 988.9
12 18.04 СЗ 3
{11}
10 км {ливн. осадки} 9/9 600 м
[Cb calv]
+12.0 +2.9 54 +11 +11 по сезону 1013.0 989.6
15 18.04 СЗ 2
{11}
10 км 9/9 600 м
[Cb calv]
+11.0 +2.7 57 +10 +10 по сезону 1012.9 989.4 7
18 18.04 СЗ 1 10 км в посл. час ливневой дождь 10/10 600 м
[Cb calv]
+9.3 +4.6 72 +9 +9 тепло 1012.5 988.9 +13.4 0.5
21 18.04 З 2 10 км 10/10 600 м
[Cb calv]
+8.2 +4.6 78 +6 +6 по сезону 1010.4 986.7
00 19.04 З 3 10 км в посл. час ливневой дождь 10/10 600 м
[Cb calv]
+6.8 +5.2 90 +4 +4 по сезону 1007.7 984.1
03 19.04 СЗ 1 10 км 10/10 600 м
[Cb calv]
+6.2 +5.1 93 +5 +5 по сезону 1005.6 981.9 +6.2 0.0
06 19.04 СЗ 2 10 км слабый ливневой дождь 10/10 300 м
[Cb calv]
+6.7 +5.6 93 +4 +4 по сезону 1004.6 981.0 +6.1 0.4
09 19.04 СЗ 3 10 км слабый ливневой дождь 10/10 300 м
[Cb calv]
+7.6 +6.5 93 +5 +5 по сезону 1004.1 980.6
12 19.04 СЗ 3 10 км {ливн. осадки} 10/6 600 м
[Sc As trans]
+10.3 +5.9 74 +8 +10 по сезону 1003.6 980.3
15 19.04 С 3
{10}
10 км 9/6 600 м
[Sc Ac trans Ci fib]
+11.7 +1.3 49 +10 +11 по сезону 1003.9 980.7 0.8
18 19.04 С 2 10 км 10/5 600 м
[Sc As op]
+10.4 +3.6 63 +9 +9 по сезону 1006.4 983.0 +12.5 0.4
21 19.04 СЗ 1 10 км 10/0
[As op]
+8.4 +4.3 75 +8 +8 тепло 1008.6 985.1
00 20.04 С 3 10 км 8/0
[Ac trans Ci fib]
+7.8 +2.3 68 +5 +5 по сезону 1009.1 985.6
03 20.04 С 2 10 км ясно +5.4 +0.2 69 +3 +3 по сезону 1011.2 987.2 +5.3
06 20.04 С 3 10 км 3/0
[Ac trans]
+10.4 0.0 48 +9 +13 тепло 1012.7 989.1 +5.1
09 20.04 С 4-10
{11}
10 км 4/4 600 м
[Cu Sc]
+14.6 -0.9 34 +14 +19 тепло 1013.9 990.7
12 20.04 С 3
{11}
10 км 5/5 600 м
[Cu Sc]
+16.0 -2.2 29 +16 +20 тепло 1014.2 991.1
15 20.04 С 3 10 км 8/5 600 м
[Sc Ac trans]
+14.3 -0.7 36 +14 +14 тепло 1014.8 991.5
18 20.04 штиль 0 10 км 4/0
[Ci fib]
+8.4 -0.5 53 +8 +8 по сезону 1015.7 991.9 +17.5
21 20.04 З 1 10 км 6/0
[Ci fib]
+7.6 -0.7 56 +7 +7 по сезону 1015.4 991.5
00 21.04 З 2 10 км 3/0
[Ci fib]
+6.1 -0.2 64 +4 +4 по сезону 1014.0 990.1
03 21.04 ЮЗ 1 10 км 8/0
[Ac trans Ci fib]
+5.1 +0.4 72 +4 +4 по сезону 1012.1 988.1 +4.3
06 21.04 ЮЗ 2 10 км 5/0
[Ci fib]
+12.2 +3.2 54 +12 +17 тепло 1008.9 985.7 +4.3
09 21.04 З 6-11
{14}
10 км 8/1 300 м
[Cu hum Ac trans Ci fib]
+18.1 +6.1 45 +18 +20 тепло 1004.0 981.3
12 21.04 З 7-15
{16}
10 км 1/1 300 м
[Cu hum]
+20.8 +3.0 31 +21 +23 комфорт 999.7 977.3
15 21.04 ЮЗ 5-11
{16}
10 км 6/4 600 м
[Cb calv Ci fib]
+20.1 +4.5 36 +21 +21 комфорт 994.8 972.4
18 21.04 З 2
{13}
10 км {гроза, ливн. осадки} 9/8 600 м
[Cb calv Ac trans Ci fib]
+13.0 +10.2 83 +12 +12 тепло 995.4 972.4 +21.4 4
21 21.04 СЗ 2
{10}
10 км 4/4 600 м
[Sc]
+10.1 +1.1 54 +9 +9 тепло 997.5 974.3
00 22.04 СЗ 3
{11}
10 км ясно +6.7 -0.3 61 +4 +4 по сезону 1000.5 976.8
03 22.04 СЗ 3 10 км 3/3 600 м
[Sc]
+6.2 +1.2 70 +3 +3 по сезону 1000.6 976.9 +6.1 4
06 22.04 СЗ 3
{11}
10 км 9/8 600 м
[Cb calv Ac trans]
+8.6 +2.1 64 +6 +7 по сезону 1001.2 977.7 +6.1
09 22.04 СЗ 3
{12}
10 км 9/9 600 м
[Cb calv]
+9.6 +1.9 59 +8 +9 по сезону 1001.8 978.4
12 22.04 СЗ 3-11
{11}
10 км {ливн. осадки} 10/6 600 м
[Cb calv Cs]
+9.2 +2.3 62 +7 +10 прохладно 1002.9 979.5
15 22.04 СЗ 2
{13}
10 км {ливн. осадки} 8/5 600 м
[Cb calv Ci fib]
+8.3 +4.0 74 +7 +7 по сезону 1004.1 980.6 1
18 22.04 С 2 10 км {ливн. осадки} 9/9 600 м
[Cb calv]
+5.4 +3.5 88 +3 +3 прохладно 1007.1 983.3 +11.7 2
21 22.04 С 2 10 км 9/9 600 м
[Cb calv]
+4.1 -2.4 63 +2 +2 прохладно 1009.3 985.4
00 23.04 СЗ 1 10 км 9/0
[Ac trans]
+0.6 -2.7 79 -1 -1 прохладно 1011.5 987.1
03 23.04 СЗ 1 10 км 1/0
[Ac trans]
-0.8 -3.6 81 -3 -3 холодно 1013.0 988.5 -1.0 0.3
06 23.04 С 2 10 км 8/4 600 м
[Sc Ac trans]
+3.5 -3.2 62 +1 +3 прохладно 1014.2 990.0 -1.0
09 23.04 СЗ 2 10 км 8/3 600 м
[Sc Ac trans]
+5.8 -6.5 41 +4 +9 прохладно 1014.9 990.9
12 23.04 С 2 10 км 4/3 600 м
[Sc Ci fib]
+8.9 -6.7 33 +8 +15 прохладно 1014.4 990.7

 

Местоположение метеостанции Орел (Орловская область, Россия): широта 52.93 долгота 36.00 высота над уровнем моря 196 м.

В архиве по умолчанию представлена погода в Орле за последнюю неделю. Архивные данные за месяц целиком и за предыдущие месяцы, начиная с января 2011 года, Вы можете получить, выбрав интересующий диапазон дат из раскрывающегося списка и нажав кнопку "Ввод!".


*Определитесь, кто Вы:
робот инопланетянин человек

Внимание! Время в таблицах - всемирное. Для получения местного времени необходимо прибавить поправку, которая в Орле равна 3 ч.

Смотрите также архив погоды в соседних городах и на ближайших метеорологических станциях:

Погода в Болхове (Орловская область, Россия) (56 км)
Погода в Мценске (Орловская область, Россия) (61 км)
Погода в Карачеве (Брянская область, Россия) (70 км)
Погода в Понырях (Курская область, Россия) (71 км)
Погода в Дмитровск-Орловский (Орловская область, Россия) (75 км)
Погода в Верховье (Орловская область, Россия) (86 км)
Погода в Фатеже (Курская область, Россия) (95 км)
Погода в Навле (Брянская область, Россия) (101 км)
Погода в Плавске (Тульская область, Россия) (114 км)
Погода в Брянске (Брянская область, Россия) (118 км)

Пояснения к столбцам:

Ветер - указаны скорость ветра в м/с - средняя за 10 мин, порывы в срок и между сроками (в фигурных скобках) и направление, откуда дует ветер: С - северный, СВ - северо-восточный, В - восточный, ЮВ - юго-восточный, Ю - южный, ЮЗ - юго-западный, З - западный, СЗ - северо-западный.
Видимость - горизонтальная дальность видимости в метрах или километрах. При видимости от 1 до 10 км при отсутствии осадков обычно наблюдается дымка, при ухудшении видимости до 1 км и менее - туман. В сухую погоду видимость может ухудшаться дымом, пылью или мглою.
Явления - указаны атмосферные явления, наблюдавшиеся в срок или в последний час перед сроком; фигурными скобками обозначены явления, наблюдавшиеся между сроками (за 1-3 часа до срока); квадратными скобками обозначены град или гололедные отложения с указанием их диаметра в мм.
Облачность - указаны через наклонную черту общая и нижняя облачность в баллах и высота нижней границы облаков в метрах; квадратными скобками обозначены формы облаков: Ci - перистые, Cs - перисто-слоистые, Cc - перисто-кучевые, Ac - высококучевые, As - высокослоистые, Sc - слоисто-кучевые, Ns - слоисто-дождевые, Cu - кучевые, Cb - кучево-дождевые. Подробнее классификацию облаков см. в Атласе облаков (PDF).
T - Температура воздуха - температура, измеренная на высоте 2 м над землей.
Td - Температура точки росы - температура, при понижении до которой содержащийся в воздухе водяной пар достигнет насыщения.
f - Относительная влажность воздуха - влажноcть воздуха, измеренная на высоте 2 м над землей.
Te - Эффективная температура - температура, которую ощущает одетый по сезону человек в тени. Характеристика душности погоды. При расчете учитывается влияние влажности воздуха и скорости ветра на теплоощущения человека.
Tes - Эффективная температура на солнце - температура, которую ощущает человек, с поправкой на солнечный нагрев. Характеристика знойности погоды. Зависит от высоты солнца над горизонтом, облачности и скорости ветра. Ночью, в пасмурную погоду, а также при ветре 12 м/с и более поправка равна нулю.
P - Атмосферное давление - приведенное к уровню моря атмосферное давление.
Po - Атмосферное давление - измеренное на уровне метеостанции атмосферное давление.
Tmin - Минимальная температура - минимум температуры воздуха на высоте 2 м над землей.
Tmax - Максимальная температура - максимум температуры воздуха на высоте 2 м над землей.
R - Количество осадков - Количество выпавших осадков за период времени, мм. При наведении курсора мыши на число - период времени, за который выпало указанное количество осадков.
R24 - Количество осадков - Количество выпавших осадков за 24 часа, мм.
S - Снежный покров - Высота снежного покрова, см. При наведении курсора мыши на число - состояние снежного покрова и степень покрытия местности в баллах.